DELTA 1 DEB, 3811

Orbit data source: Space-Track

DELTA 1 DEB, 3811 is space debris in SSO originally from a launch on Sun, 15 Dec 1968 UTC launched from the Air Force Western Test Range (AFWTR). Debris objects in space refer to the collection of defunct objects orbiting the Earth. Examples of debris include non-operational satellites, rocket bodies, and fragments generated from explosions, collisions, or faulty payload assembly.

Loading next visibility...
Identifier
3811, 1968-114C
Orbit
SSO
Country
Flag of USUS
Related business
Manufacturer
Unknown
Mission
Spacecraft
Bus & Motor
Unknown
Mass
Unknown
Launch date (UTC)
Icon of a cake. It is the launch day of the satellite!1968-12-15 (57 years ago)
Launch vehicle
Unknown
Launch site
Air Force Western Test Range (AFWTR)
Object type
Payload
Rocket body
Debris
Shape & HBR
Unknown shape, 0.1 m
Radar Cross Section
Small (<0.1 m²)

Expand to show TLE details & history
Last TLE update: 2 days ago

TLE from 2 days ago
0 DELTA 1 DEB
1 03811U 68114C   25347.72438348 -.00000030  00000-0  84972-4 0  9991
2 03811 101.8888 274.6845 0137463 173.9966 257.9453 12.76379925654562
Epoch: 2025-12-13T17:23Z
TLE epoch observation values (Epoch: 2025-12-13T17:23:06.732Z)
Latitude
67.28562°
Longitude
-98.77034°
Altitude
1,391.129 km
Speed
7.159 km/s
True Right ascension
16h 18m 37s
True Declination
67° 10' 22"
Sunlit
Object was in daylight at epoch
Visualization orbit readout
Latitude
Unknown
Longitude
Unknown
Altitude
Unknown
Speed
Unknown
Apparent Right ascension
Unknown
Apparent Declination
Unknown
Sunlit
N/A
Visualization observer readout
Local Sidereal Time
13:22:43
Azimuth
Unknown
Elevation
Unknown
Doppler factor
Unknown
Orbital elements
Apogee altitude
1,459.862 km
Perigee altitude
1,247.297 km
Semi-major axis
7,731.716 km
Eccentricity
0.01375
Inclination
101.8888°
RAAN
274.6845°
Arg. of periapsis
173.9966°
True anomaly
256.41052°
Mean anomaly
257.9453°
Eccentric anomaly
257.17734°
Mean motion
3.19249 °/min
Orbital period
112.76 mins
BSTAR
0.000084972
Loading maneuver chart data...
Computing Atmospheric mass density...
Loading historical data...
Loading historical data...
Loading historical data...
Loading historical data...
Loading historical data...
Loading historical data...
Loading historical data...

Documentation

Showing up to 5 results
|